[[{"header":{"parameterUnit":"m.s-1","parameterCategory":1,"la1":30.2991,"la2":30.254,"lo1":-89.0895,"lo2":-89.0444,"dy":0.0017,"dx":0.0017,"nx":28,"ny":28,"refTime":"2025-01-30T09:00:00:Z","depth":0,"parameterNumber":2,"parameterNumberName":"U-component_of_WINDS"},"data":[0,0,0,0,0,0,0,0,0,0,0,0,0,0,0,0,0,0,0,0,0,0,0,0,0,0,0,0,0,0,0,0,0,0,0,0,0,0,0,0,0,0,0,0,0,0,0,0,0,0,0,0,0,0,0,0,0,0,-3.7281,-3.7282,0,-3.7375,-3.7376,-3.7377,-3.7351,-3.7349,-3.7347,-3.7346,-3.7444,-3.7449,-3.7453,0,0,0,0,0,0,0,0,0,0,0,0,0,-3.7085,-3.7088,-3.7281,-3.7282,-3.7284,-3.7374,-3.7376,-3.7377,-3.7352,-3.7349,-3.7347,-3.7345,-3.7443,-3.7448,-3.7453,0,0,0,0,0,0,0,0,0,0,0,0,0,-3.7173,-3.709,-3.7281,-3.7282,-3.7283,-3.7374,-3.7376,-3.7377,-3.7352,-3.7349,-3.7346,-3.7344,-3.7441,-3.7448,-3.7454,-3.7551,0,0,-3.7474,-3.7477,0,0,0,0,0,0,0,0,-3.7168,-3.718,-3.728,-3.7282,-3.7283,-3.7348,-3.7342,-3.7436,-3.7353,-3.7326,-3.7346,-3.7342,-3.7415,-3.7423,-3.7447,-3.7556,-3.756,-3.7475,-3.7479,-3.7482,-3.7483,0,0,0,0,0,0,0,-3.7162,-3.7176,-3.7318,-3.7282,-3.7284,-3.7279,-3.7288,-3.736,-3.7385,-3.7328,-3.7326,-3.7338,-3.7415,-3.7441,-3.7449,-3.7562,-3.7475,-3.748,-3.7485,-3.7487,-3.7756,-3.7759,0,0,0,0,0,0,-3.7155,-3.7171,-3.7315,-3.7321,-3.7217,-3.7284,-3.7295,-3.733,-3.7384,-3.739,-3.734,-3.7336,-3.7431,-3.7442,-3.7453,-3.757,-3.7482,-3.7488,-3.7492,-3.7753,-3.7756,-3.776,0,0,0,0,0,0,-3.715,-3.7168,-3.7311,-3.7246,-3.7264,-3.7291,-3.7331,-3.7334,-3.7359,-3.7393,-3.7398,-3.7361,-3.7429,-3.7444,-3.7527,-3.7573,-3.7491,-3.7497,-3.7749,-3.7754,-3.7758,-3.7805,0,0,0,0,0,0,-3.7145,-3.7166,-3.7202,-3.7247,-3.7267,-3.7383,-3.7333,-3.7337,-3.737,-3.7366,-3.7415,-3.742,-3.7428,-3.7517,-3.7533,-3.758,-3.7502,-3.7745,-3.7751,-3.7757,-3.7799,-3.7811,-3.782,0,0,0,0,0,-3.7138,-3.7213,-3.7204,-3.7222,-3.7313,-3.7386,-3.7397,-3.7404,-3.7374,-3.7411,-3.7433,-3.7419,-3.7566,-3.7526,-3.7544,-3.7594,-3.7742,-3.7749,-3.7756,-3.7794,-3.7808,-3.782,0,0,0,0,0,0,-3.7174,-3.7218,-3.721,-3.7301,-3.734,-3.7381,-3.7428,-3.7419,-3.7468,-3.7462,-3.7469,-3.7481,-3.7566,-3.7589,-3.7543,-3.7691,-3.765,-3.7661,-3.7673,-3.7686,-3.7696,-3.7688,-3.7507,0,0,0,0,0,-3.7192,-3.7246,-3.7283,-3.736,-3.738,-3.7401,-3.7433,-3.7435,-3.7475,-3.7492,-3.752,-3.7561,-3.7617,-3.7653,-3.7706,-3.7803,-3.7813,-3.7847,-3.7857,-3.7866,-3.7874,-3.7928,-3.7943,-3.7783,-3.7783,-3.7783,0,0,-3.7231,-3.7262,-3.7296,-3.7368,-3.7398,-3.7455,-3.7415,-3.7476,-3.7519,-3.7502,-3.7581,-3.7604,-3.7651,-3.7741,-3.7783,-3.7763,-3.7921,-3.7875,-3.7881,-3.7886,-3.7937,-3.7952,-3.7965,-3.7788,-3.7787,-3.7787,0,0,-3.7329,-3.7359,-3.7426,-3.7457,-3.7503,-3.7517,-3.7533,-3.7577,-3.759,-3.767,-3.7659,-3.7711,-3.7806,-3.7839,-3.7869,-3.7983,-3.7971,-3.8,-3.8054,-3.8106,-3.8118,-3.813,-3.8169,-3.8183,-3.8009,-3.8009,-3.801,0,-3.7372,-3.7455,-3.7461,-3.7524,-3.7556,-3.7543,-3.7612,-3.7642,-3.7704,-3.7727,-3.7704,-3.7823,-3.7854,-3.7952,-3.798,-3.8005,-3.8024,-3.7993,-3.8116,-3.8127,-3.8138,-3.8176,-3.8191,-3.8013,-3.8012,-3.8012,-3.8012,0,-3.7505,-3.7563,-3.7612,-3.7671,-3.7709,-3.7774,-3.7791,-3.783,-3.7829,-3.7846,-3.7928,-3.7965,-3.8025,-3.8049,-3.8049,-3.8148,-3.8134,-3.8114,-3.8072,-3.8156,-3.8192,-3.8206,-3.8017,-3.8016,-3.8015,-3.8014,0,0,-3.7627,-3.7688,-3.7706,-3.7732,-3.7783,-3.7829,-3.7895,-3.7953,-3.7985,-3.8029,-3.8084,-3.8166,-3.8148,-3.8181,-3.8186,-3.8232,-3.8318,-3.8206,-3.8207,-3.8224,-3.8429,-3.8442,-3.8459,-3.8312,-3.8315,-3.8317,-3.8424,0,-3.7729,-3.7842,-3.785,-3.7953,-3.8007,-3.7997,-3.8054,-3.8092,-3.811,-3.816,-3.8181,-3.8238,-3.821,-3.823,-3.8275,-3.8298,-3.8359,-3.8291,-3.8363,-3.8366,-3.835,-3.8477,-3.8492,-3.8591,-3.8438,-3.8441,-3.8443,0,-3.7862,-3.7909,-3.8017,-3.806,-3.8083,-3.8134,-3.8188,-3.8236,-3.8279,-3.8289,-3.8328,-3.8326,-3.8395,-3.8352,-3.8447,-3.84,-3.8431,-3.8447,-3.8451,-3.8457,-3.8408,-3.8485,-3.8623,-3.8637,-3.8465,-3.8463,-3.8461,0,-3.7938,-3.8029,-3.8105,-3.8128,-3.8181,-3.8217,-3.8241,-3.8281,-3.8316,-3.8364,-3.8387,-3.8443,-3.8473,-3.8517,-3.8531,-3.8499,-3.8626,-3.8584,-3.8636,-3.8636,-3.8661,-3.8659,-3.8804,-3.8684,-3.8684,-3.8684,-3.8684,0,-3.805,-3.8116,-3.8139,-3.8186,-3.826,-3.827,-3.8344,-3.8366,-3.8403,-3.8454,-3.845,-3.8499,-3.8516,-3.8568,-3.858,-3.8657,-3.8671,-3.8681,-3.8683,-3.868,-3.8679,-3.8699,-3.8692,-3.8688,-3.8687,-3.8686,-3.8686,0,-3.8147,-3.8165,-3.8247,-3.829,-3.8303,-3.8356,-3.8394,-3.8439,-3.8457,-3.8523,-3.8539,-3.8567,-3.8628,-3.8647,-3.8722,-3.873,-3.8819,-3.8816,-3.8804,-3.8803,-3.8853,-3.8848,-3.9015,-3.9037,-3.8904,-3.8906,-3.8907,0,-3.8216,-3.8266,-3.8315,-3.8349,-3.8374,-3.8429,-3.8464,-3.8476,-3.8513,-3.8567,-3.8607,-3.8667,-3.8716,-3.8815,-3.8842,-3.89,-3.8897,-3.8952,-3.8905,-3.8901,-3.8896,-3.8892,-3.8897,-3.896,-3.8961,-3.8962,-3.8963,0,-3.8336,-3.8343,-3.8393,-3.8446,-3.8488,-3.8531,-3.8573,-3.8601,-3.862,-3.8662,-3.8724,-3.8762,-3.8838,-3.8898,-3.8956,-3.8982,-3.8976,-3.8978,-3.8993,-3.8989,-3.8979,-3.8984,-3.8825,-3.8973,-3.8972,-3.8972,-3.8971,-3.8971,-3.842,-3.8464,-3.8505,-3.8562,-3.8594,-3.8633,-3.8678,-3.8702,-3.8753,-3.8814,-3.882,-3.8887,-3.8931,-3.9008,-3.9038,-3.9091,-3.9075,-3.9097,-3.9102,-3.9107,-3.911,-3.8972,-3.9102,-3.9102,-3.9102,-3.9101,-3.9101,0,-3.8539,-3.8565,-3.8617,-3.8674,-3.8719,-3.8709,-3.8755,-3.8793,-3.8852,-3.8893,-3.8941,-3.9012,-3.9071,-3.9104,-3.9163,-3.92,-3.9198,-3.9215,-3.9211,-3.9217,-3.9121,-3.9102,-3.9215,-3.9215,-3.9215,-3.9214,-3.9214,-3.9214,-3.8606,-3.868,-3.8692,-3.8782,-3.8809,-3.8873,-3.89,-3.8937,-3.8969,-3.9049,-3.9097,-3.9118,-3.9157,-3.9218,-3.9272,-3.9281,-3.9302,-3.932,-3.9326,-3.9236,-3.9224,-3.9213,-3.9194,-3.9325,-3.9325,-3.9417,-3.9418,-3.9419]},{"header":{"parameterUnit":"m.s-1","parameterCategory":1,"la1":30.2991,"la2":30.254,"lo1":-89.0895,"lo2":-89.0444,"dy":0.0017,"dx":0.0017,"nx":28,"ny":28,"refTime":"2025-01-30T09:00:00:Z","depth":0,"parameterNumber":3,"parameterNumberName":"V-component_of_WINDS"},"data":[0,0,0,0,0,0,0,0,0,0,0,0,0,0,0,0,0,0,0,0,0,0,0,0,0,0,0,0,0,0,0,0,0,0,0,0,0,0,0,0,0,0,0,0,0,0,0,0,0,0,0,0,0,0,0,0,0,0,1.9193,1.9193,0,1.9183,1.9183,1.9183,1.916,1.916,1.916,1.9159,1.9148,1.9149,1.9149,0,0,0,0,0,0,0,0,0,0,0,0,0,1.9192,1.9193,1.9193,1.9193,1.9192,1.9183,1.9183,1.9183,1.9161,1.916,1.9159,1.9159,1.9148,1.9149,1.9149,0,0,0,0,0,0,0,0,0,0,0,0,0,1.9189,1.9193,1.9193,1.918,1.9179,1.9183,1.9183,1.9183,1.9161,1.916,1.9159,1.9159,1.9148,1.9149,1.9149,1.9164,0,0,1.9149,1.915,0,0,0,0,0,0,0,0,1.9189,1.9189,1.9182,1.9181,1.918,1.9172,1.9179,1.9176,1.9161,1.9168,1.9159,1.9158,1.9157,1.9156,1.9156,1.9163,1.9163,1.9149,1.915,1.915,1.915,0,0,0,0,0,0,0,1.9189,1.9189,1.9189,1.9182,1.9181,1.9175,1.9174,1.9178,1.9166,1.9167,1.9165,1.9165,1.9156,1.9156,1.9156,1.9163,1.9149,1.915,1.915,1.915,1.9183,1.9184,0,0,0,0,0,0,1.9191,1.9189,1.9189,1.9188,1.9183,1.9176,1.9174,1.9175,1.9166,1.9164,1.9165,1.9164,1.9156,1.9155,1.9155,1.9173,1.915,1.915,1.915,1.9183,1.9184,1.9184,0,0,0,0,0,0,1.9191,1.9191,1.9189,1.9188,1.9188,1.9177,1.9178,1.9175,1.9175,1.9165,1.9162,1.9167,1.9155,1.9155,1.9162,1.9173,1.915,1.915,1.9182,1.9183,1.9184,1.9209,0,0,0,0,0,0,1.9191,1.9192,1.9197,1.9189,1.9188,1.9197,1.9178,1.9176,1.9176,1.9174,1.9166,1.9164,1.9155,1.9162,1.9162,1.9173,1.915,1.9181,1.9182,1.9184,1.9208,1.9211,1.9214,0,0,0,0,0,1.9191,1.9204,1.9197,1.9197,1.9194,1.9197,1.9197,1.9186,1.9177,1.9182,1.9176,1.9164,1.9171,1.9163,1.9163,1.9174,1.918,1.9182,1.9183,1.9206,1.9211,1.9214,0,0,0,0,0,0,1.9213,1.9203,1.9195,1.9205,1.9203,1.9194,1.92,1.9191,1.919,1.9188,1.9175,1.9173,1.9183,1.9179,1.917,1.9188,1.9174,1.9176,1.9191,1.9195,1.9199,1.92,1.915,0,0,0,0,0,1.9219,1.9223,1.9213,1.9223,1.9222,1.9212,1.9212,1.9204,1.9201,1.9199,1.9193,1.919,1.9192,1.9193,1.9194,1.9206,1.9205,1.9214,1.9217,1.922,1.9222,1.9231,1.9235,1.919,1.919,1.919,0,0,1.9232,1.9226,1.9229,1.9227,1.9224,1.9228,1.9211,1.9215,1.9218,1.92,1.9207,1.9202,1.9198,1.9209,1.9213,1.9206,1.9234,1.9222,1.9225,1.9225,1.9233,1.9237,1.9241,1.9191,1.9191,1.9191,0,0,1.9257,1.9253,1.9261,1.9259,1.9255,1.9248,1.925,1.9242,1.9239,1.9246,1.9233,1.9236,1.9239,1.9237,1.9236,1.9262,1.9252,1.9262,1.928,1.9289,1.9292,1.9295,1.9306,1.931,1.9264,1.9264,1.9264,0,1.9273,1.9279,1.9267,1.9273,1.9273,1.9257,1.9266,1.9264,1.926,1.9261,1.9252,1.9257,1.9252,1.9263,1.927,1.9269,1.9272,1.9263,1.9293,1.9296,1.9298,1.9308,1.9312,1.9265,1.9265,1.9265,1.9265,0,1.93,1.9304,1.9311,1.9309,1.931,1.9317,1.9307,1.9309,1.9301,1.9295,1.9303,1.9298,1.9298,1.93,1.9291,1.931,1.9306,1.9295,1.928,1.9304,1.9314,1.9317,1.9268,1.9267,1.9267,1.9266,0,0,1.9338,1.933,1.9333,1.9333,1.9327,1.933,1.9337,1.9338,1.9341,1.9339,1.9345,1.9348,1.9339,1.9338,1.933,1.9337,1.936,1.9325,1.9325,1.9333,1.9381,1.9391,1.9395,1.9352,1.9353,1.9354,1.9382,0,1.9364,1.9376,1.9366,1.938,1.9385,1.937,1.9376,1.9374,1.9369,1.9372,1.9366,1.9369,1.9355,1.9355,1.9361,1.9356,1.9369,1.9353,1.9359,1.936,1.9363,1.94,1.9409,1.9437,1.9386,1.9386,1.9387,0,1.9394,1.9395,1.941,1.9405,1.9406,1.9412,1.9413,1.9416,1.9413,1.9409,1.9409,1.9399,1.9406,1.9391,1.9401,1.9391,1.9392,1.939,1.9391,1.9392,1.9376,1.9404,1.9445,1.945,1.9392,1.9392,1.9391,0,1.9424,1.9428,1.9438,1.9437,1.9431,1.9436,1.9434,1.943,1.9432,1.9432,1.9433,1.9434,1.9435,1.9436,1.9427,1.9416,1.9439,1.9423,1.9437,1.9437,1.9443,1.9443,1.9487,1.9442,1.9442,1.9441,1.9441,0,1.9454,1.9464,1.9451,1.9457,1.9469,1.9457,1.9469,1.9464,1.9462,1.9467,1.9454,1.9459,1.9446,1.945,1.9443,1.9454,1.9454,1.9451,1.9449,1.9453,1.9454,1.9455,1.9454,1.9442,1.9442,1.9442,1.9442,0,1.9489,1.948,1.9491,1.9484,1.9483,1.9492,1.9486,1.9492,1.9486,1.9494,1.9495,1.9485,1.949,1.948,1.9483,1.9478,1.9494,1.9488,1.9496,1.9495,1.951,1.9509,1.9557,1.9564,1.9513,1.9513,1.9514,0,1.9509,1.9517,1.9512,1.9515,1.9514,1.9518,1.952,1.9509,1.9512,1.951,1.9516,1.9519,1.9522,1.953,1.9523,1.9526,1.9521,1.9538,1.9522,1.9526,1.9524,1.9524,1.9526,1.9542,1.9542,1.9543,1.9543,0,1.9547,1.9543,1.9546,1.9549,1.9552,1.9553,1.9553,1.9556,1.9544,1.9548,1.9553,1.9554,1.9558,1.9562,1.9563,1.9561,1.9551,1.9548,1.9552,1.9557,1.9562,1.9562,1.9507,1.9548,1.9547,1.9547,1.9547,1.9547,1.9577,1.9584,1.9582,1.9586,1.9586,1.9586,1.9592,1.9587,1.9591,1.9594,1.9586,1.9593,1.9591,1.9592,1.9591,1.9596,1.9589,1.9594,1.9595,1.9597,1.9601,1.956,1.9596,1.9596,1.9596,1.9596,1.9596,0,1.9616,1.9614,1.9619,1.962,1.9624,1.9613,1.9613,1.9617,1.9624,1.9623,1.9626,1.9632,1.9636,1.963,1.9633,1.9639,1.9635,1.964,1.9641,1.9641,1.9606,1.9603,1.9644,1.9644,1.9644,1.9644,1.9644,1.9644,1.9637,1.9649,1.9645,1.9656,1.9654,1.9661,1.9662,1.9663,1.9662,1.967,1.9674,1.967,1.9667,1.9671,1.9674,1.9672,1.9675,1.9683,1.968,1.9648,1.9643,1.9639,1.9636,1.9683,1.9683,1.9714,1.9715,1.9715]}]]